Regional Weather Roundup
Issued by NWS

Home | Current Version | Previous Version | Graphics & Text | Print | Product List | Glossary On
Versions: 1 2 3 4 5 6 7 8 9 10 11 12 13 14 15 16 17 18 19 20 21 22 23 24 25 26 27 28 29 30 31 32 33 34 35 36 37 38 39 40 41 42 43 44 45 46 47 48 49 50
000
ASUS44 KMEG 310310
RWRTN
TENNESSEE HOURLY STATE WEATHER ROUNDUP
NATIONAL WEATHER SERVICE MEMPHIS TN
1000 PM CDT SAT JUL 30 2016

TNZ002-004-019-021-049-052-054-088>092-310400-
WEST TENNESSEE

CITY           SKY/WX    TMP DP  RH WIND       PRES   REMARKS
MEMPHIS INTL   CLOUDY    83  73  72 SW5       29.99R
NWS MEMPHIS      N/A     78 N/A N/A MISG        N/A
JACKSON        CLOUDY    77  76  96 S5        29.99R
DYERSBURG      MOCLDY   N/A N/A N/A MISG        N/A
UNION CITY     CLEAR     75  75 100 S3        29.97R
PARIS          CLEAR     73  72  94 CALM      30.00R
LEXINGTON      CLEAR     75  73  94 CALM      29.99R
$$

TNZ008-025-027-028-033-062-065-066-310400-
NORTH MIDDLE TENNESSEE

CITY           SKY/WX    TMP DP  RH WIND       PRES   REMARKS
NASHVILLE      PTCLDY    80  71  74 CALM      30.00R
CLARKSVILLE    CLEAR     76  73  91 CALM      29.98S
SMYRNA         PTCLDY    78  74  87 CALM      30.00S
COOKEVILLE     CLEAR     73  73 100 CALM      30.02F
CROSSVILLE     CLEAR     72  70  93 CALM      30.08S
$$

TNZ061-075-076-078-094-096-097-310400-
SOUTH MIDDLE TENNESSEE

CITY           SKY/WX    TMP DP  RH WIND       PRES   REMARKS
FAYETTEVILLE   CLEAR     73  70  88 S5        30.04R
TULLAHOMA        N/A     75  73  94 S3        30.05R
WINCHESTER     CLEAR     75  73  94 CALM      30.04S
MCMINNVILLE    CLEAR     75  75 100 S5G117    30.04S
COLUMBIA       CLEAR    N/A N/A N/A S5        30.00R
SHELBYVILLE    PTCLDY    79  75  89 S3        30.03R
$$

TNZ017-018-042-046-047-310400-
NORTHEAST TENNESSEE

CITY           SKY/WX    TMP DP  RH WIND       PRES   REMARKS
TRI CITIES     PTCLDY    74  69  85 CALM      30.05R
ELIZABETHTON   CLEAR     73  68  83 CALM      30.06R
$$

TNZ012-013-036-069-073-074-310400-
CENTRAL EAST TENNESSEE

CITY           SKY/WX    TMP DP  RH WIND       PRES   REMARKS
KNOXVILLE      PTCLDY    79  72  79 W5        30.01R
OAK RIDGE      CLEAR     79  71  76 CALM      30.03R
GATLINBURG     CLEAR     77  68  73 CALM      30.02R
MORRISTOWN     PTCLDY    73  70  88 CALM      30.03S
$$

TNZ083-085-099-310400-
SOUTHEAST TENNESSEE

CITY           SKY/WX    TMP DP  RH WIND       PRES   REMARKS
CHATTANOOGA    PTCLDY    80  71  74 S3        30.02S
$$

SKY/WX REPORTED AS FAIR MEANS FEW OR NO CLOUDS BELOW
12 THOUSAND FEET.





USA.gov is the U.S. government's official web portal to all federal, state and local government web resources and services.